Flag for Tunisia Weather past 2 weeks in Tunis, Tunisia

Now
77 °F

Passing clouds.


Feels Like: 79 °F
Forecast: 74 / 87 °F
Wind: No wind

Location: Tunis-Carthage

Current Time: Jul 29, 2014 at 2:27:17 AM

Latest Report: Jul 29, 2014 at 2:00 AM


Visibility: N/A

Pressure: 29.86 "Hg

Humidity: 69%

Dew point: 66 °F

Location of TunisLocation

Historic Weather in Tunis — Graph

°F

Tunis temperature yesterday

Maximum temperature yesterday: 91 °F (at 11:00 AM)
Minimum temperature yesterday: 75 °F (at 5:30 AM)
Average temperature yesterday: 83 °F

Past Weeks' High & Low Weather Summary

 TemperatureHumidityPressure
High104 °F (Jul 20, 2:30 PM)94% (Jul 25, 6:00 AM)30.09 "Hg (Jul 25, 6:00 AM)
Low68 °F (Jul 14, 2:30 AM)18% (Jul 19, 1:30 PM)29.74 "Hg (Jul 26, 5:00 AM)
Average83 °F54%29.96 "Hg
* Reported Jul 14 1:00 AM — Jul 29 1:00 AM, Tunis, Weather by CustomWeather, © 2014

Note: Actual official high and low records may vary slightly from our data, if they occured in-between our weather recording intervals... More about our weather records

Advertising

Tunis weather history for previous 24 hours

 ConditionsComfort  
Time TempWeatherWind HumidityBarometerVisibility
1:00 AM
Jul 29
79 °FPassing clouds.5 mph65%29.89 "HgN/A
12:30 AM79 °FPassing clouds.No wind70%29.89 "HgN/A
12:00 AM79 °FPassing clouds.No wind65%29.89 "HgN/A
11:30 PM
Jul 28
79 °FPassing clouds.No wind65%29.92 "HgN/A
11:00 PM79 °FPassing clouds.3 mph65%29.92 "HgN/A
10:30 PM77 °FPassing clouds.No wind65%29.92 "HgN/A
9:30 PM77 °FPassing clouds.No wind69%29.92 "HgN/A
9:00 PM77 °FPassing clouds.No wind69%29.92 "HgN/A
8:30 PM77 °FPassing clouds.3 mph69%29.92 "HgN/A
8:00 PM79 °FPassing clouds.5 mph65%29.92 "HgN/A
7:30 PM79 °FPassing clouds.7 mph58%29.92 "HgN/A
7:00 PM81 °FPassing clouds.8 mph58%29.92 "HgN/A
6:30 PM82 °FPassing clouds.9 mph55%29.92 "HgN/A
6:00 PM84 °FPassing clouds.13 mph48%29.92 "HgN/A
5:30 PM86 °FPassing clouds.12 mph43%29.92 "HgN/A
5:00 PM88 °FPassing clouds.13 mph38%29.92 "HgN/A
4:30 PM88 °FPassing clouds.13 mph38%29.92 "HgN/A
4:00 PM90 °FPassing clouds.15 mph36%29.92 "HgN/A
3:30 PM91 °FPassing clouds.15 mph32%29.95 "HgN/A
3:00 PM91 °FPassing clouds.14 mph34%29.95 "HgN/A
2:30 PM91 °FPassing clouds.16 mph32%29.95 "HgN/A
2:00 PM91 °FPassing clouds.14 mph34%29.95 "HgN/A
1:30 PM91 °FPassing clouds.13 mph34%29.95 "HgN/A
1:00 PM91 °FPassing clouds.15 mph36%29.95 "HgN/A
12:30 PM90 °FPassing clouds.13 mph38%29.98 "HgN/A
12:00 PM91 °FPassing clouds.10 mph36%29.98 "HgN/A
11:30 AM90 °FPassing clouds.12 mph41%29.98 "HgN/A
11:00 AM91 °FPassing clouds.12 mph36%29.98 "HgN/A
10:30 AM90 °FPassing clouds.10 mph38%29.98 "HgN/A
10:00 AM88 °FPassing clouds.13 mph40%29.98 "HgN/A
9:30 AM88 °FPassing clouds.8 mph35%30.01 "HgN/A
9:00 AM86 °FPassing clouds.10 mph38%30.01 "HgN/A
8:30 AM84 °FPassing clouds.8 mph40%30.01 "HgN/A
8:00 AM82 °FPassing clouds.9 mph40%30.01 "HgN/A
7:30 AM81 °FPassing clouds.9 mph45%29.98 "HgN/A
7:00 AM79 °FSunny.8 mph48%29.98 "Hg10 mi
6:30 AM77 °FSunny.8 mph51%29.98 "Hg10 mi
6:00 AM75 °FSunny.8 mph54%29.98 "Hg10 mi
5:30 AM75 °FSunny.5 mph54%29.98 "Hg10 mi
5:00 AM77 °FPassing clouds.3 mph51%29.95 "HgN/A
4:30 AM77 °FClear.2 mph51%29.95 "Hg10 mi
3:30 AM79 °FClear.7 mph48%29.95 "Hg10 mi
3:00 AM79 °FClear.2 mph51%29.98 "Hg10 mi
2:30 AM79 °FClear.8 mph51%29.98 "Hg10 mi
2:00 AM79 °FPassing clouds.3 mph54%29.98 "HgN/A
Weather by CustomWeather, © 2014

See weather overviewHow to use our weather pages